Location: Observatory
(52.1446°N, 0.4624°W)
Time: 21:57:19
(UTC+01:00)

ISS - Pass Details

Date: 25 March 2019
Orbit: 408 x 410 km, 51.6° (Epoch: 22 April)

Event Time Altitude Azimuth Distance (km) Brightness Sun altitude
Rises 19:11:30 0° 228° (SW) 2,330 0.5 -8.1°
Reaches altitude 10° 19:13:42 10° 218° (SW) 1,471 -0.7 -8.5°
Maximum altitude 19:16:42 33° 153° (SSE) 718 -2.9 -8.9°
Enters shadow 19:19:15 13° 91° (E) 1,308 -1.9 -9.3°
